BLOCK DM-SL R/B, 26452

Orbit data source: Space-Track

BLOCK DM-SL R/B, 26452 is space debris in HEO originally from a launch on Fri, 28 Jul 2000 UTC launched from the Sea Launch (SEAL). Debris objects in space refer to the collection of defunct objects orbiting the Earth. Examples of debris include non-operational satellites, rocket bodies, and fragments generated from explosions, collisions, or faulty payload assembly.

Loading next visibility...
Identifier
26452, 2000-043B
Orbit
HEO
Country
Flag of UnknownUnknown / SEAL
Related business
Manufacturer
RKKE
Mission
Spacecraft
Bus & Motor
BLOK DM2, Unknown motor
Mass
~3,210 kg wet, ~3,210 kg dry
Launch date (UTC)
2000-07-28 (25 years ago)
Launch vehicle
Unknown
Launch site
Sea Launch (SEAL)
Object type
Payload
Rocket body
Debris
Shape & HBR
Cyl, 3.1 m
Radar Cross Section
23.684 m², Large (>1 m²)

Expand to show TLE details & history
Last TLE update: 8 hours ago

TLE from 8 hours ago
0 BLOCK DM-SL R/B
1 26452U 00043B   25308.51344218 -.00000039  00000-0  00000-0 0  9995
2 26452   0.9125 128.3821 6720388 154.2735 222.7356  2.16747945199713
Epoch: 2025-11-04T12:19Z
TLE epoch observation values (Epoch: 2025-11-04T12:19:21.404Z)
Latitude
-0.23521°
Longitude
-114.56148°
Altitude
34,056.866 km
Speed
1.978 km/s
True Right ascension
07h 37m 06s
True Declination
0° 14' 06"
Sunlit
Object was in daylight at epoch
Visualization orbit readout
Latitude
Unknown
Longitude
Unknown
Altitude
Unknown
Speed
Unknown
Apparent Right ascension
Unknown
Apparent Declination
Unknown
Sunlit
N/A
Visualization observer readout
Local Sidereal Time
16:01:31
Azimuth
Unknown
Elevation
Unknown
Doppler factor
Unknown
Orbital elements
Apogee altitude
35,799.847 km
Perigee altitude
1,894.842 km
Semi-major axis
25,225.482 km
Eccentricity
0.67204
Inclination
0.9125°
RAAN
128.3821°
Arg. of periapsis
154.2735°
True anomaly
191.63471°
Mean anomaly
222.7356°
Eccentric anomaly
205.91032°
Mean motion
0.54173 °/min
Orbital period
664.54 mins
BSTAR
0
Loading maneuver chart data...
Computing Atmospheric mass density...
Loading historical data...
Loading historical data...
Loading historical data...
Loading historical data...
Loading historical data...
Loading historical data...
Loading historical data...
Other satellites on launch #43 in the year 2000 (2000-07-28 UTC)

Documentation

Showing up to 5 results
|